Location: Newark
(31.3428°N, 34.3253°E)
Time: 06:19:26
(UTC+00:00)

LightSail 2 - Visible Passes

Search period start: 27 January 2020 00:00
Search period end: 06 February 2020 00:00
Orbit: 704 x 719 km, 24.0° (Epoch: 26 January)

Date Brightness Start Highest point End Pass type
(mag) Time Alt. Az. Time Alt. Az. Time Alt. Az.
27 Jan 7.3 17:11:44 10° WSW 17:15:02 17° SSW 17:17:01 14° S visible
28 Jan 7.2 16:12:50 10° WSW 16:16:41 21° SSW 16:20:31 10° SSE visible
29 Jan 7.8 17:01:51 10° SW 17:03:13 11° SSW 17:04:35 10° S visible
30 Jan 7.7 16:02:04 10° SW 16:04:53 15° SSW 16:07:42 10° SSE visible
